Theta_e
334 334 334 333 332 331 332 332 332 334 334 333 332 331 331 333 332 332 332 331 330 328 328 328 328 328 327 327 327 328 332 332 332 332 334 335 336 338 340 339 338 339 337 335 335 336 335 334 333 332 332 331 331 331 331 330 330 332 333 338 336 334 332 331 329 329 329 328 328 328 327 327 327 327 326 325 325 326 326 326 325 325 325 325 324
333 335 335 333 333 331 331 331 332 333 335 331 332 331 330 330 330 331 332 331 330 327 328 327 327 327 327 327 326 326 329 332 332 332 334 334 335 338 341 339 339 339 339 337 336 336 336 335 334 334 332 331 331 331 331 331 330 332 332 337 336 335 334 332 330 329 328 328 326 326 327 327 326 326 326 326 325 325 324 324 324 324 323 323 323
333 334 334 334 332 331 331 331 332 333 334 334 333 332 331 331 331 329 330 327 327 326 326 325 326 326 327 326 326 325 327 330 332 333 333 333 335 336 339 341 340 340 340 338 338 336 336 336 335 334 333 332 332 331 330 330 330 331 332 335 336 335 334 333 331 330 329 328 328 327 327 327 326 326 325 325 325 325 325 324 324 324 324 324 324
333 335 334 332 330 330 331 330 330 331 332 333 334 334 333 333 333 332 327 327 326 325 326 325 325 325 326 325 325 325 325 329 331 332 333 332 334 336 336 337 340 341 341 339 339 338 336 336 336 336 335 334 333 332 330 331 330 330 331 334 333 335 335 334 332 331 330 329 328 327 327 326 327 326 326 325 324 323 324 324 324 324 323 324 324
332 333 333 330 330 331 330 329 331 333 334 334 334 335 333 333 332 329 326 323 321 322 326 326 325 324 325 326 325 324 323 329 329 332 333 332 333 335 335 336 337 340 339 340 339 339 338 338 337 337 335 335 334 333 331 331 331 329 331 331 333 333 336 335 333 332 331 329 327 327 327 327 326 326 326 325 325 324 323 323 323 323 323 323 323
333 334 331 330 329 329 329 329 330 331 332 333 333 333 332 329 327 327 329 320 318 321 323 323 324 324 324 327 328 329 328 326 327 329 333 332 331 332 334 335 335 336 337 341 340 339 338 339 337 337 336 335 335 334 334 332 332 330 330 331 332 334 334 336 334 332 331 331 329 328 327 327 326 326 326 325 325 324 323 323 323 323 323 323 323
334 332 331 330 330 329 331 332 332 332 332 331 332 333 331 327 325 323 322 323 318 322 322 321 322 325 329 329 330 331 329 328 328 327 331 333 331 331 332 333 335 335 336 337 340 339 338 339 340 339 337 336 336 335 335 335 332 332 330 331 331 333 333 335 335 334 333 332 330 329 328 328 327 325 325 325 325 324 324 323 323 322 322 322 322
334 334 331 330 331 331 331 331 332 330 329 330 330 331 331 329 325 324 321 319 321 321 321 321 323 327 327 326 329 329 329 329 329 329 328 329 331 332 331 331 333 334 337 335 335 337 338 338 338 338 339 338 337 336 336 335 333 333 334 332 332 332 333 333 335 335 334 332 331 331 329 328 326 325 325 325 325 325 324 324 323 322 322 321 321
334 331 329 328 328 329 331 332 332 331 330 328 328 331 330 333 328 326 325 324 327 327 328 327 327 327 326 326 327 327 325 328 328 329 330 328 329 332 331 331 332 338 335 333 334 334 336 337 339 338 337 338 338 338 337 337 336 334 335 334 333 332 332 332 333 335 335 334 332 331 330 328 326 326 325 325 324 324 324 324 323 322 322 321 321
332 330 329 330 330 330 329 331 331 330 328 328 328 328 328 328 328 328 328 327 326 324 324 326 327 328 327 328 327 326 324 326 325 327 327 328 327 328 330 332 331 332 331 332 333 333 334 336 338 338 338 335 335 339 338 338 337 337 337 336 334 333 333 333 333 333 335 335 334 332 330 329 327 326 325 325 324 325 324 324 323 322 322 322 321
331 331 328 330 331 330 330 330 329 329 327 325 325 327 328 327 326 325 327 327 326 324 326 324 326 326 328 328 328 328 325 325 322 321 323 325 329 332 330 330 333 332 331 331 332 332 333 333 334 335 336 336 336 339 339 339 338 338 337 338 336 333 333 333 332 333 333 335 335 333 331 330 328 327 326 325 325 325 324 324 324 323 322 322 322
330 329 328 329 328 327 328 330 329 327 326 324 324 326 326 325 324 325 323 325 325 329 327 325 324 324 325 327 329 330 328 325 322 322 321 321 326 330 328 328 328 330 333 334 332 331 331 332 333 334 335 336 336 337 338 337 337 339 338 338 337 336 335 334 333 333 333 334 335 334 332 330 330 328 327 326 325 325 325 324 323 324 322 322 321
331 331 329 333 329 329 329 329 328 326 325 323 324 326 327 326 326 322 322 321 323 326 326 326 323 321 325 325 327 332 328 326 325 323 322 321 325 330 330 329 329 327 327 327 329 332 332 331 332 333 333 334 335 337 335 335 336 338 339 338 338 337 338 338 336 334 334 334 334 335 333 331 330 329 328 328 326 326 325 324 323 324 323 322 321
328 330 330 332 329 329 328 326 326 325 325 325 325 329 328 328 328 324 325 323 321 325 326 323 319 319 319 318 320 325 327 324 325 326 326 324 326 330 331 329 329 329 329 328 328 329 334 333 331 331 332 332 332 334 335 335 335 336 339 340 339 338 338 338 338 337 335 335 334 334 335 333 331 330 330 329 328 327 326 325 324 323 322 322 322
319 322 324 329 330 329 328 327 326 327 326 324 324 327 327 326 327 326 323 324 323 326 324 322 319 321 319 317 315 314 319 323 323 322 325 325 328 331 330 329 330 330 331 330 329 327 328 331 333 333 333 332 332 332 333 335 334 334 336 338 340 339 339 339 339 339 336 335 335 334 336 334 332 331 331 330 329 328 327 326 324 324 323 322 321
322 322 318 321 324 328 328 327 327 328 327 325 325 325 325 325 327 327 326 322 322 321 325 325 322 319 313 314 314 314 311 316 319 323 328 329 330 331 331 330 330 329 329 331 330 328 328 327 328 330 331 331 332 332 332 332 334 334 334 333 335 339 340 340 339 341 340 337 336 335 336 335 333 332 332 331 330 329 328 327 326 324 324 322 322
320 321 322 319 321 323 324 326 326 327 327 325 325 325 325 323 324 325 325 322 321 322 324 325 323 324 318 315 313 311 311 315 318 320 326 329 329 331 329 330 328 329 329 332 333 330 329 330 330 329 330 330 331 332 332 331 332 334 335 334 335 336 339 341 342 340 341 340 338 337 336 336 335 333 332 332 331 330 329 328 327 325 325 324 323
320 321 322 321 320 321 323 324 325 325 326 324 326 325 325 325 324 323 323 322 322 321 321 324 325 326 325 321 317 312 313 317 315 311 321 324 328 330 331 330 330 330 330 331 332 331 331 331 331 332 331 329 329 330 331 332 333 331 332 333 330 333 334 337 341 342 340 341 341 340 338 337 336 334 333 332 331 330 329 329 328 327 326 326 325
318 319 320 322 320 319 315 316 320 321 321 319 320 321 324 327 326 324 323 323 322 318 318 320 323 324 324 324 324 323 323 317 313 315 312 318 324 323 326 329 331 331 331 332 331 330 329 330 331 333 333 332 330 329 329 331 333 332 334 332 329 326 325 326 334 341 342 341 340 340 340 338 338 335 334 333 332 331 330 330 329 329 327 327 326
320 319 319 318 317 315 314 314 316 318 319 318 318 319 321 323 322 323 323 322 321 320 319 320 318 319 323 322 323 324 324 321 320 315 310 310 313 319 323 325 326 328 329 329 330 331 328 329 331 332 332 334 332 330 329 330 330 332 331 327 326 325 323 323 322 323 334 340 340 339 339 339 339 336 335 333 332 332 331 331 330 330 329 328 328
317 316 315 317 318 315 314 314 312 314 317 316 316 317 317 317 318 317 317 318 320 320 320 318 319 318 320 319 321 321 321 320 320 317 312 309 310 314 315 322 325 326 326 327 329 331 330 330 331 332 329 329 330 331 332 331 332 331 329 322 323 323 322 321 317 316 318 330 339 339 338 338 337 337 335 334 333 332 332 331 331 331 330 329 328
315 315 315 316 315 315 313 313 315 316 316 315 315 314 314 314 315 316 316 316 315 315 316 316 315 315 317 316 315 318 318 317 316 315 316 315 310 311 311 310 313 319 325 326 327 329 331 330 330 332 332 331 331 332 332 332 333 332 329 323 324 321 321 320 314 314 317 319 329 338 341 339 338 337 337 337 336 334 333 332 332 332 332 331 329
314 315 315 314 314 317 314 315 316 318 316 313 312 314 315 314 315 315 315 314 312 312 311 312 313 311 311 312 312 311 310 308 308 311 309 308 307 307 307 307 306 306 316 327 327 329 330 332 331 331 331 332 333 332 330 330 331 331 326 324 324 323 322 320 314 313 315 321 323 331 338 341 339 338 337 337 337 337 335 335 335 334 333 333 332
314 313 311 313 314 315 315 314 315 312 312 314 314 314 315 315 314 313 312 312 313 313 311 310 310 310 310 310 310 311 310 309 311 310 309 308 308 306 306 307 307 306 310 324 328 328 329 331 332 331 331 332 332 333 332 331 332 327 326 323 322 321 320 320 318 315 312 316 321 325 331 336 339 339 339 337 337 337 336 336 337 336 335 334 333
313 313 311 313 313 313 313 312 313 315 313 312 313 314 313 312 313 313 313 312 311 311 310 309 310 309 309 309 309 310 309 310 310 310 310 309 308 304 306 307 304 305 305 307 311 324 327 327 329 329 329 330 332 332 332 330 330 325 325 326 322 321 319 318 319 317 314 313 316 322 327 333 338 339 340 339 337 337 336 336 330 325 327 327 330
313 312 314 313 314 316 315 313 313 313 313 312 313 313 313 313 313 313 313 312 312 311 310 309 309 309 310 310 308 309 307 310 309 308 307 306 305 304 304 305 306 306 307 306 308 306 307 312 318 325 329 329 329 329 330 331 330 323 322 328 322 318 318 318 317 314 311 311 310 316 319 324 330 336 338 338 337 332 329 323 321 320 319 320 320
314 314 315 314 314 313 312 312 313 312 313 313 316 314 314 314 313 312 312 311 311 312 310 309 310 308 308 309 309 307 307 309 308 309 309 308 307 306 305 303 302 302 303 305 307 307 307 309 312 314 319 324 327 328 329 329 327 323 321 327 328 316 315 317 317 317 312 310 307 308 311 314 317 320 322 323 322 321 322 323 322 317 318 317 318
316 314 314 315 314 314 314 312 312 312 312 312 312 312 312 311 311 309 310 315 312 311 310 310 308 308 308 308 305 305 308 309 309 308 308 309 308 308 306 304 301 298 302 302 304 306 309 308 309 311 312 313 321 325 326 327 327 321 321 322 324 323 316 314 314 314 313 311 310 309 308 309 310 312 313 315 319 320 321 322 321 318 316 318 319
316 315 315 315 315 313 312 312 312 312 311 312 312 311 312 312 310 310 309 309 310 310 309 308 308 307 306 307 305 306 307 308 308 309 309 307 308 307 307 305 304 301 299 299 301 302 306 309 306 308 311 311 313 316 319 324 324 320 323 322 322 319 318 314 311 311 312 311 308 308 307 307 309 310 314 315 316 318 318 316 317 316 316 318 319
317 316 316 316 315 319 313 312 311 312 311 312 311 311 312 311 311 310 310 310 310 309 309 308 308 308 308 306 306 305 306 307 309 309 309 308 308 307 306 306 306 302 302 299 299 303 304 307 309 308 309 309 311 313 315 313 320 318 312 314 315 314 312 311 311 310 310 309 307 307 306 306 308 310 313 312 313 315 314 314 313 313 314 316 316
317 315 315 316 315 314 314 311 312 312 312 311 310 310 311 310 311 310 310 309 308 308 309 309 310 309 306 305 306 306 305 305 306 310 309 307 307 306 305 305 307 305 303 302 298 302 307 304 306 309 308 308 309 309 312 312 313 313 312 312 313 313 313 312 311 310 310 309 308 307 306 307 308 308 309 312 314 314 314 314 313 313 314 314 313
316 314 315 316 315 314 314 313 312 312 312 312 310 309 309 308 310 310 309 310 309 307 306 308 311 308 306 306 305 305 306 306 304 305 304 306 307 307 306 306 305 306 305 303 300 300 304 305 305 306 308 307 308 307 307 309 311 312 311 310 310 311 310 310 310 311 311 309 309 308 309 309 309 308 308 308 308 310 310 310 313 313 311 310 311
316 315 315 316 316 315 315 314 313 312 311 311 310 309 309 309 308 309 308 309 308 307 307 307 308 308 307 307 307 308 306 303 303 304 304 304 304 306 306 305 305 305 303 302 300 300 301 305 306 306 307 307 307 307 307 307 307 308 310 308 309 309 309 310 311 309 308 308 307 307 307 306 306 306 306 305 306 307 308 308 310 311 309 307 307
318 316 315 316 316 316 314 315 314 314 313 312 310 310 308 309 307 311 309 308 308 308 306 304 306 309 304 304 307 305 305 305 305 305 305 304 303 302 302 304 302 303 304 303 300 300 299 302 304 306 307 307 305 306 305 305 306 307 307 307 308 308 309 308 308 310 308 308 306 305 306 306 305 305 305 304 304 305 306 306 305 304 306 305 304
316 317 316 316 316 316 315 315 314 314 314 312 311 311 310 310 307 309 309 306 306 306 305 305 306 306 306 306 304 305 308 304 305 304 304 304 303 302 301 302 301 302 303 303 302 300 299 301 303 304 304 305 303 304 306 306 306 306 305 305 306 308 309 308 308 309 307 306 306 306 305 304 304 303 303 304 304 303 304 305 304 304 303 303 303
317 317 317 317 316 315 315 315 314 314 314 313 312 312 312 311 310 310 308 307 306 306 306 306 306 305 304 305 305 306 305 304 304 304 303 303 302 302 301 302 301 302 302 302 301 300 299 298 298 300 302 301 302 304 306 306 305 305 305 305 305 305 305 306 306 307 307 306 306 306 307 307 305 304 302 302 303 304 303 303 304 303 303 303 303
319 317 316 315 315 315 316 315 315 314 314 313 313 312 312 312 311 310 309 308 307 307 306 306 309 305 305 305 305 306 303 302 303 303 302 302 303 302 301 302 302 303 303 302 302 301 299 298 299 300 301 301 303 303 304 303 303 304 305 304 305 305 305 306 307 309 308 307 307 307 307 306 305 305 304 303 303 303 303 302 303 303 304 304 304
316 317 316 316 316 316 315 314 314 314 314 314 314 313 313 313 312 311 309 308 308 308 307 307 305 305 305 303 305 303 303 302 303 302 302 302 303 301 299 299 298 299 298 298 299 298 297 297 297 297 298 300 300 300 303 303 302 301 301 302 303 303 304 305 306 309 311 309 309 308 306 305 306 306 306 305 304 303 302 303 303 304 304 304 303
318 317 317 316 316 316 316 316 314 316 315 315 315 316 315 313 312 311 309 308 308 308 307 307 305 306 305 304 304 303 302 302 301 300 299 298 300 297 298 296 297 297 297 297 297 297 296 296 296 297 297 299 299 298 300 302 302 301 300 301 300 303 303 302 304 305 306 307 306 304 304 304 305 306 305 305 305 305 305 304 305 306 305 304 303
316 316 317 317 317 317 316 315 315 314 314 315 315 316 317 315 312 311 310 310 309 308 307 306 306 306 305 305 304 303 302 300 298 297 297 295 295 294 295 297 296 295 294 295 295 294 294 294 294 293 295 295 295 296 299 299 298 298 300 300 298 299 300 302 303 302 304 305 305 307 306 306 305 306 304 304 304 304 305 305 306 306 306 304 303
317 317 316 316 316 317 316 315 315 314 316 316 317 317 316 316 314 311 311 311 309 308 306 305 305 305 304 304 303 301 304 304 301 300 300 299 294 291 293 294 295 293 293 293 293 292 292 292 291 293 292 292 293 294 294 294 294 295 298 298 297 298 299 299 301 304 305 304 304 304 305 306 306 306 307 307 308 308 308 306 306 307 306 303 303
317 317 316 317 317 316 316 316 315 315 315 316 314 309 310 315 314 313 312 311 310 308 307 304 303 303 304 304 309 309 304 301 298 295 294 295 298 297 294 293 293 292 292 292 291 292 292 291 290 290 290 290 291 292 293 294 295 296 296 295 295 296 297 297 298 299 303 300 300 299 301 304 304 304 305 305 307 307 308 309 310 309 307 304 304
316 315 315 315 315 316 315 314 313 314 315 316 307 303 302 304 312 312 311 309 309 308 306 304 302 302 303 305 306 303 302 300 298 293 293 293 293 294 296 297 298 293 292 291 291 291 292 292 292 291 290 290 291 292 292 293 293 294 294 294 295 295 293 293 293 296 299 299 297 296 297 301 303 302 302 303 304 305 305 305 303 303 303 303 303
315 315 314 315 315 315 315 314 314 314 314 309 303 301 300 299 302 311 310 309 308 307 306 304 303 302 303 304 303 302 300 299 298 296 295 294 292 292 292 292 293 293 294 294 292 291 290 290 290 290 290 290 291 292 292 292 293 294 294 294 294 293 292 291 291 292 296 298 295 294 295 299 301 300 300 302 303 303 304 302 301 301 301 301 302
316 315 315 315 315 315 314 313 313 313 312 307 301 300 299 298 298 306 310 309 307 306 305 304 303 302 302 303 302 302 303 306 305 297 295 295 294 293 293 293 293 292 290 290 292 294 292 291 291 291 291 291 291 292 294 294 294 293 293 293 293 292 291 291 291 292 294 296 295 294 293 296 297 297 298 300 301 302 302 301 301 301 301 301 300
307 310 313 314 314 313 314 313 313 311 310 305 300 299 299 297 296 302 307 307 306 305 305 304 304 302 302 302 302 301 301 303 302 300 298 296 295 294 293 292 292 294 293 292 291 291 292 292 291 291 293 293 293 294 296 295 294 294 293 292 291 291 291 291 292 292 294 297 294 293 293 294 296 297 296 297 300 300 301 301 300 300 300 300 300
305 305 306 306 308 309 309 311 310 307 307 296 294 295 295 295 296 300 304 304 303 303 304 303 301 300 300 303 301 300 301 301 301 300 299 297 295 296 293 293 293 293 294 293 293 293 293 293 292 292 293 294 294 294 295 296 295 295 295 293 292 291 292 292 291 291 292 295 295 293 290 293 296 295 296 297 299 299 300 299 300 300 300 300 300
303 303 304 306 306 306 308 306 304 301 295 292 292 293 294 295 298 303 302 301 301 302 301 300 299 299 300 300 300 299 299 300 299 295 297 298 294 293 293 292 292 292 292 296 295 295 296 295 294 294 294 294 294 294 294 294 293 293 294 293 292 290 289 289 288 290 289 292 294 293 291 292 294 294 295 297 298 297 299 300 299 301 301 301 300
299 301 304 303 303 305 304 303 301 296 292 292 292 293 294 295 297 300 300 298 298 298 298 299 299 300 301 301 300 299 299 299 296 292 293 295 293 292 292 291 291 291 292 294 294 294 292 292 291 291 291 291 291 292 292 292 292 292 290 289 288 289 288 287 288 288 289 290 292 294 292 291 293 294 294 295 295 295 296 297 298 299 300 300 300
299 300 302 303 303 303 303 302 300 295 290 291 292 293 294 295 297 299 298 298 296 296 298 300 300 300 303 307 304 300 297 295 289 289 290 293 291 290 290 289 289 288 289 291 293 292 292 292 291 291 291 291 291 292 292 292 292 293 290 288 289 288 288 287 286 287 289 290 291 294 291 290 293 294 293 294 293 294 296 297 297 300 300 298 296
299 300 302 301 297 297 299 299 300 294 290 291 292 292 293 295 298 298 298 297 296 296 297 298 300 300 295 294 295 295 293 290 288 289 289 291 289 288 288 287 287 286 288 287 287 287 287 288 288 289 289 290 291 290 292 292 292 293 292 291 290 288 287 287 288 288 287 288 291 293 290 290 291 292 292 291 290 292 294 296 296 299 301 299 298
Wind_Speed
4 4 2 2 1 2 3 2 2 2 2 1 2 3 2 2 2 2 3 4 4 5 4 4 4 3 3 3 2 2 3 7 5 4 4 5 5 7 11 10 10 10 12 12 11 12 12 11 11 10 10 9 8 8 8 8 6 5 2 10 10 9 9 8 7 8 8 9 8 8 7 7 8 8 8 8 9 10 11 11 11 11 11 11 12
4 4 5 1 1 2 2 1 2 3 2 2 2 2 3 2 2 3 3 3 4 3 4 5 3 3 2 1 2 2 3 8 6 5 4 4 5 5 10 10 10 11 11 11 12 12 12 12 11 11 11 11 8 7 7 8 8 7 2 8 10 11 9 9 7 7 8 8 8 8 8 7 8 8 7 8 8 9 9 10 10 11 11 11 11
2 4 5 3 2 4 3 1 0 1 2 3 2 2 2 3 3 4 4 2 1 1 3 2 2 3 3 3 4 2 2 6 8 7 6 4 5 4 6 9 9 8 9 11 10 12 12 12 12 11 11 11 10 9 7 7 8 9 6 6 7 8 10 9 9 7 7 7 7 8 7 8 7 8 8 7 7 8 9 9 9 10 10 11 11
4 5 5 4 3 4 3 3 1 1 1 3 3 3 4 4 4 4 4 1 0 1 2 4 2 2 2 2 3 5 2 5 7 8 7 7 6 5 5 6 9 9 8 11 10 10 12 12 12 12 12 12 11 11 9 9 9 8 9 7 5 7 9 11 9 9 7 7 7 7 7 7 7 7 7 7 7 7 7 8 9 9 9 10 10
4 4 1 2 3 4 2 2 4 4 3 2 2 3 2 5 3 2 2 2 3 4 4 3 2 3 3 3 4 4 3 5 7 8 8 8 7 6 6 6 6 9 9 8 10 10 11 12 11 13 12 12 12 12 10 10 10 9 9 8 7 6 10 11 10 9 8 7 7 7 7 7 7 7 7 7 7 7 7 7 8 8 8 9 10
4 2 1 1 2 2 2 3 2 3 2 1 3 2 4 2 3 3 2 3 3 3 4 4 5 5 4 4 2 3 3 2 1 3 7 8 7 7 6 6 6 6 6 8 9 9 10 9 11 12 12 12 13 12 12 11 11 11 11 10 10 8 8 12 11 10 10 9 8 7 7 7 7 7 7 7 7 7 7 7 7 8 8 8 8
2 3 2 1 1 2 4 4 3 3 4 1 0 1 2 4 3 4 1 1 2 1 0 1 1 2 3 2 4 3 5 5 3 5 1 1 6 7 6 6 6 6 6 5 7 9 8 8 10 10 12 12 12 12 12 13 11 12 11 11 10 10 8 10 12 11 10 10 9 8 7 7 7 7 7 7 7 7 7 7 7 7 8 7 8
2 5 1 2 1 2 4 3 2 3 2 1 0 1 2 2 3 4 2 2 2 2 0 0 1 2 1 2 3 4 5 4 5 6 3 4 3 3 6 6 6 6 7 6 6 7 11 9 9 9 10 12 11 11 11 12 12 11 11 11 11 11 11 10 11 12 12 10 10 9 8 8 7 7 7 7 7 7 7 7 7 7 7 7 7
2 1 3 2 1 3 1 2 1 1 1 1 1 1 2 2 1 2 4 2 2 3 3 3 4 2 1 4 5 4 4 4 4 3 4 5 1 5 4 7 8 9 6 6 6 6 10 12 10 9 10 10 10 11 10 11 12 12 11 11 11 12 11 11 11 11 13 12 11 11 10 9 8 7 8 7 7 7 7 7 7 7 7 7 7
3 2 2 3 2 2 2 0 2 3 3 1 0 2 3 3 5 4 3 3 2 1 1 1 3 3 5 4 3 3 4 3 4 4 5 4 4 3 4 6 6 7 7 7 7 7 6 11 13 11 9 9 9 9 11 11 11 13 13 11 11 12 12 11 12 11 13 13 13 12 10 10 9 8 8 8 8 8 8 8 8 8 8 8 8
8 6 4 4 5 6 4 2 2 2 3 1 0 0 3 3 4 3 2 3 3 2 1 2 3 2 2 2 2 2 2 3 4 4 4 4 2 1 3 2 1 3 6 7 6 7 7 6 7 6 8 12 11 10 11 12 11 12 13 12 11 12 12 12 12 12 12 12 13 12 10 10 11 9 8 9 9 9 9 8 8 8 8 8 8
6 5 6 5 4 2 2 3 2 1 1 0 1 2 4 3 3 3 3 1 0 1 3 2 2 1 0 1 3 3 2 2 2 2 3 4 4 2 3 2 3 1 2 1 2 4 6 6 6 7 7 10 13 11 11 11 10 11 12 13 13 13 13 12 12 12 12 10 12 12 11 11 11 11 10 9 9 10 10 9 9 9 9 8 8
3 2 3 4 2 1 1 2 2 2 2 2 2 1 1 2 3 2 2 1 0 1 1 2 3 2 1 1 1 1 1 3 3 3 4 5 4 3 3 4 3 4 3 3 5 6 4 1 2 3 5 6 8 12 12 11 10 10 13 13 14 14 14 13 12 13 14 13 11 13 12 12 12 12 12 10 10 10 10 11 10 10 10 9 9
5 5 3 3 3 2 3 3 2 2 2 2 1 0 2 1 1 2 1 0 1 2 1 2 0 2 3 0 1 1 1 1 2 3 4 5 4 4 4 4 3 2 2 5 3 3 5 5 4 0 1 3 3 4 6 8 10 13 13 13 14 15 14 14 14 13 14 15 13 12 11 13 14 13 13 12 11 11 11 11 12 11 11 11 10
3 3 4 4 4 4 4 4 4 3 3 3 2 3 3 3 5 4 3 2 2 1 3 1 2 1 1 3 0 0 2 3 1 3 2 4 5 3 3 3 3 3 2 3 4 4 5 5 4 4 3 3 3 4 6 7 10 13 14 13 13 15 15 15 16 15 15 15 15 14 14 14 14 14 14 13 13 12 12 12 12 12 12 11 11
3 3 4 3 4 6 5 5 6 5 4 3 3 3 3 6 5 4 3 3 2 2 2 4 1 4 1 1 1 1 0 2 2 1 2 4 2 0 1 1 2 2 2 3 2 5 3 5 5 6 6 6 6 6 6 7 11 14 15 14 13 12 15 16 15 17 17 16 16 15 14 15 15 15 14 14 13 13 13 12 12 12 12 12 12
4 5 4 4 3 3 4 4 4 4 4 4 3 4 3 2 2 3 3 2 3 1 0 2 2 1 1 2 2 1 1 1 0 1 1 0 0 0 0 1 1 1 2 1 1 1 4 4 4 4 4 4 4 5 5 6 5 6 9 13 14 13 13 14 13 15 17 17 17 17 14 15 16 16 15 14 13 14 14 13 13 13 13 13 13
4 5 5 4 4 3 2 3 4 3 2 3 4 3 4 3 3 3 3 2 3 2 2 1 1 2 3 2 1 1 2 1 1 1 2 1 1 0 1 1 2 4 3 3 1 0 0 1 2 4 5 5 4 6 5 6 6 6 6 8 14 14 14 14 14 14 16 18 19 19 18 16 17 15 15 14 14 15 15 15 15 15 15 15 14
4 5 5 4 5 5 5 4 3 5 5 6 4 2 2 3 3 4 4 4 3 3 4 2 3 3 1 1 2 0 2 2 1 1 0 1 2 3 2 3 2 2 3 3 3 3 1 1 2 2 3 4 3 3 5 6 7 8 11 11 10 13 14 14 14 15 16 17 19 19 18 17 17 15 15 16 16 17 17 16 16 16 15 15 15
4 4 4 5 6 6 6 7 6 5 6 6 5 4 5 3 2 3 3 3 4 5 4 4 4 2 3 3 3 2 0 2 2 2 2 1 1 2 2 3 3 4 5 4 4 4 3 3 3 1 1 2 4 3 2 3 3 6 6 10 12 13 14 14 14 14 14 17 18 17 18 17 17 16 16 16 17 17 18 18 17 17 17 15 15
5 5 5 5 5 5 5 5 5 5 6 6 5 6 6 5 5 5 3 3 2 2 4 3 3 3 4 2 3 2 1 2 2 1 1 1 2 1 2 1 2 5 4 2 4 4 4 4 2 2 2 3 3 1 4 3 4 1 2 6 8 9 10 9 11 13 14 14 15 18 17 15 16 16 17 18 17 18 18 18 18 18 17 17 17
5 5 5 5 5 5 5 6 5 5 5 5 5 6 5 5 5 5 5 6 5 4 3 2 2 2 2 2 2 3 1 1 1 0 0 0 1 2 2 3 4 3 3 5 6 6 6 5 4 4 4 4 2 2 4 5 4 4 4 5 5 7 9 9 9 7 11 14 15 16 17 16 15 17 18 18 20 19 18 19 19 19 19 19 18
6 5 5 5 5 4 5 4 4 4 4 5 4 4 4 4 5 7 7 6 6 6 6 5 4 5 5 5 6 5 4 2 2 2 3 1 1 2 2 3 2 3 1 6 6 6 5 4 6 7 6 5 4 3 4 3 2 3 6 7 6 3 2 2 7 10 10 9 12 15 15 14 14 16 17 19 20 21 21 21 22 21 20 19 19
5 6 4 4 4 4 4 5 5 5 5 4 4 5 6 6 6 6 6 5 5 6 5 6 6 6 6 6 5 5 4 4 1 2 3 1 1 1 3 3 1 1 3 1 3 4 4 7 7 6 6 5 6 7 6 4 5 8 6 6 5 5 5 6 5 5 7 10 13 12 17 19 14 13 15 17 19 19 20 21 22 21 20 20 20
5 5 4 4 4 5 5 5 5 4 4 5 4 5 5 5 5 5 5 5 4 5 6 4 5 5 4 3 5 5 4 3 4 4 3 4 5 5 3 1 1 3 3 1 2 2 4 6 6 4 2 3 1 0 1 2 2 2 1 2 4 3 5 4 6 6 10 13 15 15 18 17 14 14 13 14 16 18 19 19 16 16 17 18 18
6 6 5 4 4 5 4 4 4 4 4 4 4 4 4 4 4 5 4 3 4 4 4 4 4 4 4 6 5 5 4 5 4 5 5 5 4 4 3 3 2 3 2 3 4 4 6 6 6 4 4 3 2 2 3 4 4 6 6 3 2 3 3 4 6 8 11 14 15 16 15 13 12 12 12 12 12 12 14 16 16 17 17 17 17
7 5 4 5 5 5 5 5 4 4 4 4 5 5 4 5 4 4 4 4 5 5 4 5 5 5 5 4 5 5 4 4 5 4 3 3 3 2 4 6 6 4 5 2 3 4 5 4 7 8 7 4 2 2 4 3 2 1 2 1 2 7 9 10 13 15 13 13 15 14 13 11 11 11 11 10 10 11 11 14 16 17 17 17 16
6 5 4 5 5 5 5 5 5 4 3 3 4 4 4 5 4 3 3 2 4 4 3 4 3 4 5 4 6 4 5 4 4 4 4 3 3 3 4 4 4 4 4 4 4 2 4 5 4 8 8 7 4 1 2 1 3 4 0 1 2 3 7 11 12 12 12 12 13 12 12 12 12 11 11 11 11 11 10 10 13 16 17 17 17
7 6 5 5 5 5 4 4 4 4 3 3 4 4 4 4 3 3 4 3 4 3 3 4 4 4 4 4 4 6 4 3 3 3 3 3 3 3 1 2 2 3 2 5 3 2 3 4 3 4 7 5 5 5 6 4 3 2 2 2 3 2 5 8 9 11 12 12 12 13 14 14 13 12 12 12 12 12 12 11 10 11 13 15 17
8 6 6 6 5 5 5 4 4 4 3 3 4 4 4 5 4 4 3 3 3 3 3 3 3 2 3 4 3 4 3 3 1 0 1 1 2 3 3 3 3 4 1 1 3 1 3 3 2 1 3 6 6 5 3 3 4 3 3 4 4 4 7 7 3 6 10 11 12 12 13 13 14 13 13 13 13 12 12 12 12 12 12 13 15
7 6 5 6 5 4 5 4 4 3 2 2 4 4 3 4 4 5 4 4 3 3 1 3 1 2 3 4 3 3 2 3 3 1 0 2 1 1 2 2 2 2 1 1 2 4 3 6 3 3 4 3 4 4 4 4 3 4 4 3 3 7 8 6 8 8 8 9 10 11 12 14 14 15 14 14 13 13 12 12 13 13 12 12 12
7 7 6 5 5 5 4 5 4 3 2 1 3 4 3 4 4 5 4 3 4 3 2 1 1 1 1 1 2 2 1 3 3 3 3 2 1 1 0 1 2 0 2 1 1 5 3 3 6 6 8 9 8 6 5 5 6 9 5 6 6 8 6 6 8 11 11 11 12 11 12 13 13 14 15 14 14 13 13 13 13 13 12 12 13
7 7 6 6 6 6 5 5 5 4 4 3 2 3 2 2 2 4 4 3 4 4 3 1 1 1 1 1 1 1 2 3 3 3 3 3 2 2 1 1 2 2 1 1 1 4 4 2 4 5 7 7 8 6 8 8 9 8 8 6 7 5 5 5 5 9 12 12 13 13 13 12 12 13 14 14 14 14 14 14 13 13 14 14 13
8 9 8 7 7 6 5 5 6 6 5 5 4 4 3 3 3 2 3 2 2 3 4 4 2 2 1 3 3 2 3 2 2 3 3 4 3 3 3 3 2 3 0 1 1 0 4 5 5 6 5 4 4 5 7 9 9 8 8 7 7 6 6 7 6 6 11 12 12 11 11 13 14 14 14 14 14 14 13 13 13 13 13 13 13
2 5 7 8 7 6 6 6 5 6 6 5 5 5 5 4 5 3 4 4 3 3 4 4 4 3 2 1 2 2 1 2 1 3 3 4 3 4 4 3 4 4 5 5 3 2 3 3 3 4 4 4 4 6 6 6 7 6 6 6 6 6 5 5 6 5 7 4 5 8 9 11 11 12 12 13 13 13 13 12 13 13 14 14 14
1 2 3 3 2 3 6 7 7 6 7 7 6 7 7 6 6 5 5 5 4 4 4 4 4 3 4 2 1 3 2 2 1 1 3 3 4 4 4 4 4 4 3 2 2 0 1 3 2 3 3 5 4 4 5 6 6 7 6 6 6 6 5 5 4 4 5 10 10 10 10 9 9 8 9 11 12 13 14 15 15 14 14 14 15
3 2 2 4 3 1 5 7 7 7 8 9 9 8 7 7 8 7 6 5 4 4 5 4 4 4 4 4 3 2 3 2 0 1 1 4 3 4 4 4 4 4 4 5 4 3 3 3 4 3 3 3 4 5 6 6 6 6 5 6 6 7 7 6 5 6 9 11 10 11 10 11 11 11 9 9 10 11 12 13 14 14 15 15 16
3 5 4 5 5 6 4 3 4 5 3 4 2 4 7 9 8 8 8 7 5 5 4 4 3 4 4 4 2 3 2 2 1 1 3 3 4 4 4 4 4 4 4 4 4 4 4 3 3 5 4 5 5 4 5 5 6 7 7 6 5 4 5 7 6 5 4 5 5 6 7 8 10 12 11 10 11 12 13 14 15 15 15 16 15
9 8 5 3 3 3 3 3 2 6 5 5 6 5 4 5 7 8 8 8 7 6 5 5 5 4 4 3 2 2 2 2 3 3 3 3 3 3 3 3 3 4 4 4 5 5 4 4 3 3 5 4 3 4 5 6 6 4 5 7 7 6 6 4 6 6 4 5 5 7 8 8 10 9 11 13 12 12 13 15 16 16 15 15 15
5 5 6 5 4 4 4 3 4 5 5 5 4 5 3 2 4 7 9 9 8 7 7 6 6 6 5 4 4 3 4 4 5 3 3 2 2 2 2 3 3 3 3 3 4 4 5 4 3 4 3 4 6 4 4 6 7 7 7 6 7 7 8 8 7 7 5 6 7 7 8 10 9 11 11 8 10 12 13 14 15 16 17 16 16
6 6 4 4 5 5 3 3 3 4 5 5 6 6 6 6 5 7 9 10 9 8 7 6 6 6 5 5 4 4 5 7 7 5 4 4 1 0 1 2 2 2 2 2 2 3 4 4 6 4 5 6 5 6 7 5 5 5 4 5 5 6 7 7 8 8 6 7 7 7 6 6 7 6 6 7 8 8 9 10 10 13 15 16 17
6 5 4 4 5 6 5 4 5 6 6 6 8 13 9 7 6 5 5 8 9 8 8 7 6 6 6 5 5 10 10 9 8 8 7 5 3 2 1 0 1 1 1 1 3 3 3 5 4 4 6 6 5 4 4 4 5 5 7 7 8 8 7 7 5 3 6 9 9 9 9 7 8 7 5 6 7 7 6 6 5 7 11 14 15
5 5 4 5 6 6 5 5 5 6 6 7 14 15 15 12 6 5 6 6 7 8 8 8 8 7 6 6 6 8 8 6 6 8 7 6 5 5 4 4 4 2 0 2 4 3 3 3 4 4 4 6 5 4 4 6 4 4 4 5 5 5 5 6 8 7 3 11 9 9 10 8 8 8 8 7 7 8 9 8 12 14 15 15 15
5 4 4 6 6 6 6 7 7 7 6 8 12 11 11 11 9 7 7 8 7 8 8 8 7 7 6 5 5 5 5 6 5 4 4 7 8 7 6 5 5 3 2 2 3 3 3 5 6 5 4 6 6 5 6 3 5 6 6 6 5 4 6 5 5 7 5 8 9 10 12 5 6 8 9 8 8 8 10 15 21 20 16 12 12
6 5 8 7 7 7 7 7 6 5 4 7 9 10 11 12 12 11 7 9 9 8 8 7 6 6 6 5 5 5 4 8 5 4 4 4 7 8 5 3 3 4 6 6 6 5 4 4 6 7 6 5 7 5 3 4 4 7 6 6 4 4 4 6 6 7 7 6 9 9 13 9 6 8 9 8 7 6 9 12 17 17 19 20 17
2 6 7 8 7 6 6 6 5 3 4 6 8 11 11 11 12 12 6 6 6 6 7 7 6 6 6 6 6 5 4 4 4 5 4 4 4 4 4 4 4 5 6 8 9 10 7 6 6 8 8 4 8 7 7 6 7 8 7 8 4 5 7 9 8 8 6 3 6 8 12 9 7 8 8 7 6 7 8 12 16 17 17 18 18
2 3 3 3 5 5 5 5 4 3 1 3 4 4 5 8 10 8 6 5 6 5 4 5 6 4 5 5 5 5 4 4 3 5 5 5 4 4 4 4 5 5 4 4 3 3 4 4 6 8 9 8 8 8 8 7 7 8 8 8 6 6 8 7 6 4 5 3 5 4 12 8 7 10 9 7 7 8 7 10 14 16 18 19 17
5 3 2 1 3 4 2 4 5 4 1 5 7 10 12 12 11 7 6 7 7 7 5 4 5 5 5 4 4 3 3 3 6 9 8 4 5 5 5 4 4 4 4 4 6 5 5 5 4 4 5 5 7 6 6 6 6 5 6 7 6 6 8 9 10 5 5 2 4 6 9 9 5 9 9 6 6 7 6 7 11 15 18 20 14
4 4 5 4 3 3 3 4 5 3 3 5 7 10 11 12 9 6 6 7 6 6 4 4 4 4 3 3 2 3 3 3 6 7 1 1 2 1 1 2 3 2 4 4 4 6 8 8 5 4 5 7 8 9 9 9 6 4 4 5 6 5 7 9 9 6 7 3 2 4 9 11 6 6 9 7 8 7 6 6 6 10 16 12 9
5 5 5 5 1 1 5 5 6 6 4 5 8 9 10 10 8 7 6 7 5 4 4 3 4 3 2 1 1 1 2 4 9 10 8 5 4 4 4 3 3 4 4 3 3 4 8 10 11 12 12 13 14 15 13 11 11 8 7 9 6 5 8 6 9 6 6 3 5 6 7 8 8 7 8 5 4 3 5 6 6 8 10 7 7
4 5 6 0 3 2 4 6 9 9 6 5 8 10 10 9 7 5 6 6 5 3 3 1 2 4 8 10 11 9 8 7 11 11 10 7 4 3 2 3 3 4 5 2 3 4 5 6 6 7 7 9 8 7 8 13 13 11 7 8 5 6 8 7 7 7 9 3 3 1 6 6 5 4 5 7 6 4 3 6 6 7 6 4 4
Wind_Direction
155 167 133 106 160 112 108 172 146 114 125 119 164 166 158 190 209 213 232 241 253 269 246 226 202 193 211 273 279 248 115 119 123 139 150 149 154 169 163 159 158 162 165 167 174 173 171 172 170 170 176 183 183 175 162 186 160 165 237 156 145 137 131 124 123 121 117 115 114 112 109 105 102 99 98 94 94 94 95 96 98 96 90 85 81
163 130 100 99 198 120 112 201 173 128 132 194 225 173 177 213 226 231 244 262 269 297 253 210 210 194 217 218 275 199 152 133 142 142 150 155 163 168 168 165 165 167 168 172 174 178 177 174 174 169 179 181 184 178 180 169 177 167 183 146 152 145 139 133 133 130 127 124 120 119 116 114 107 103 102 101 98 99 99 102 102 102 100 98 95
125 87 103 199 179 88 95 125 97 115 147 170 179 203 202 203 213 223 231 246 306 283 50 322 246 206 217 212 259 295 145 143 144 147 156 167 169 171 173 171 174 177 172 173 179 179 181 177 177 175 177 180 177 180 183 173 186 176 155 136 147 157 148 146 146 143 139 138 133 128 125 123 122 114 110 110 109 106 102 101 102 105 107 103 103
84 100 144 172 142 107 119 124 157 254 227 187 191 205 206 221 233 211 175 145 199 35 30 62 7 8 354 321 295 264 196 172 149 155 162 165 171 181 173 178 184 182 178 175 182 180 185 183 183 176 180 179 179 179 183 185 184 200 181 141 145 162 166 155 154 150 152 149 144 137 135 133 130 127 119 115 113 109 111 108 106 105 106 109 107
25 40 127 182 125 125 137 170 194 205 201 204 227 246 236 229 238 118 89 60 21 24 20 15 56 336 344 319 307 301 267 191 171 157 164 165 175 175 175 180 186 187 186 178 182 184 187 188 187 181 185 185 181 182 182 187 186 194 191 181 161 184 177 168 159 157 157 159 154 150 143 143 139 135 135 128 123 121 115 115 111 108 106 106 111
103 102 319 57 60 90 147 222 219 225 185 170 226 248 261 168 142 78 61 58 41 15 36 348 5 341 349 337 15 18 17 318 13 166 167 168 173 174 178 179 184 185 186 188 186 190 195 194 191 189 187 193 188 188 185 189 191 188 193 197 185 187 201 175 166 165 162 166 164 161 158 152 149 145 141 140 134 128 130 123 120 113 111 108 105
123 176 226 74 138 199 208 202 206 198 168 166 233 270 238 138 136 113 93 59 27 330 82 69 344 350 57 32 27 20 44 356 3 71 95 232 172 173 175 181 181 184 189 183 195 193 200 204 197 195 190 197 200 192 193 191 189 192 192 194 192 191 206 181 176 172 171 168 168 167 166 162 157 154 151 148 146 145 139 136 130 125 118 118 117
182 170 131 144 318 275 193 184 183 169 144 204 348 37 344 129 149 133 114 57 39 317 240 11 19 76 69 56 22 34 60 27 32 17 64 147 201 195 181 179 181 188 188 188 184 195 201 204 207 199 190 202 204 202 199 194 192 195 199 198 196 199 199 198 184 184 175 172 170 170 172 168 164 163 159 157 155 152 149 146 139 137 132 128 129
306 150 116 111 183 270 260 169 106 98 157 197 230 110 76 66 38 69 110 120 65 20 27 73 91 93 352 48 20 12 32 42 28 24 20 35 45 187 200 192 189 189 188 186 183 191 202 201 204 206 201 208 207 209 207 200 200 201 203 205 201 200 206 205 202 197 186 179 178 174 174 172 169 171 167 164 164 159 155 154 149 147 147 143 139
204 209 135 170 201 230 235 102 132 115 101 92 115 82 96 84 75 61 102 116 103 124 296 50 57 32 23 31 21 4 9 15 17 15 17 15 13 60 199 208 195 188 189 189 186 188 198 203 202 204 207 210 212 216 212 213 204 206 208 207 202 202 202 209 205 208 194 189 183 180 177 169 171 181 174 173 169 168 165 163 162 160 158 160 154
183 172 180 189 199 198 167 137 107 96 89 64 4 83 81 77 102 85 55 73 143 175 88 48 71 55 51 341 330 336 350 15 25 8 6 346 352 341 39 138 175 241 198 187 191 192 194 193 195 198 207 207 206 212 214 220 214 212 207 207 204 203 204 207 209 211 205 200 189 185 181 173 172 187 188 181 178 175 176 173 171 170 169 168 167
171 177 177 193 200 214 150 141 114 99 111 108 278 182 150 125 118 114 105 102 71 116 114 138 99 80 359 323 324 332 353 10 356 358 343 344 337 317 73 97 113 217 196 311 275 219 193 191 195 200 202 208 207 208 214 215 217 224 213 205 210 205 205 207 208 210 214 212 205 188 185 183 176 183 196 191 186 183 183 179 180 178 177 175 175
179 176 188 187 172 171 93 103 155 142 146 214 207 308 103 108 108 72 118 107 73 118 51 72 80 18 352 261 266 256 341 335 313 350 346 328 320 349 26 51 77 99 100 150 185 202 202 215 268 228 214 205 212 213 211 213 215 224 232 216 211 211 206 208 207 207 209 215 211 201 187 188 183 184 193 199 195 191 190 184 186 184 183 183 182
160 174 197 155 142 168 149 160 159 177 172 185 210 86 65 34 88 85 324 168 148 120 145 96 7 174 146 75 2 354 324 332 346 327 338 317 325 352 14 17 67 78 132 126 102 130 132 127 142 143 300 295 274 254 221 218 221 223 225 229 222 215 210 208 210 208 208 210 211 206 190 191 187 188 194 197 199 198 196 192 190 189 189 189 189
103 98 122 153 177 164 163 151 177 189 181 191 182 149 158 184 215 160 166 223 113 130 173 184 171 147 115 82 312 35 331 350 348 294 267 275 293 348 13 24 41 20 3 97 106 114 130 143 158 169 172 218 216 207 230 227 223 220 222 224 227 226 219 211 205 206 208 209 210 209 189 195 189 192 196 197 200 202 202 200 196 195 193 195 195
53 70 57 46 117 167 173 173 170 180 162 167 174 148 138 168 185 166 150 136 153 174 178 195 186 126 70 154 199 110 45 308 291 284 216 227 230 309 61 46 360 357 17 25 65 121 143 153 163 173 189 199 221 217 209 220 231 225 224 223 224 227 231 226 216 206 206 207 209 212 194 195 195 195 198 199 201 203 205 204 200 201 199 199 200
81 81 84 69 66 107 129 155 144 147 147 149 133 143 172 137 149 151 145 145 164 131 324 171 218 69 141 102 57 5 224 226 121 292 352 34 354 181 32 36 349 326 33 7 328 90 147 164 163 165 184 194 192 191 190 204 222 235 240 235 225 222 227 236 237 225 211 210 210 212 203 195 195 196 199 201 202 203 206 206 204 202 204 204 203
60 63 67 69 58 46 61 123 156 138 138 136 144 130 139 149 175 143 128 133 137 124 117 95 139 64 80 116 147 178 169 244 98 264 326 298 302 21 12 54 302 322 341 295 293 299 341 125 163 167 168 184 167 152 155 167 193 201 213 233 233 225 222 227 236 242 229 216 214 211 209 198 196 195 199 201 205 204 206 209 206 204 205 205 205
82 76 62 54 67 60 54 56 73 98 87 81 90 132 149 133 138 136 151 158 147 119 143 130 92 91 106 51 300 247 229 129 198 126 359 305 246 232 229 213 213 247 261 272 274 258 223 201 239 198 175 159 192 170 157 171 183 196 205 216 227 235 231 223 229 237 239 232 224 222 218 210 197 194 194 198 201 206 208 208 210 212 210 208 208
84 69 69 69 66 58 53 66 71 64 74 72 75 65 66 71 109 114 127 141 133 130 141 156 131 155 155 171 244 254 236 69 79 149 157 156 307 312 257 231 232 232 223 214 235 248 251 231 242 227 251 205 160 167 167 176 181 184 195 203 205 210 230 235 228 232 243 242 239 229 222 217 207 197 196 195 198 202 208 211 211 213 216 214 213
73 74 57 61 68 67 58 64 76 79 76 71 63 57 57 57 59 73 84 74 83 110 114 145 131 149 143 193 162 204 86 65 71 84 132 141 272 279 298 327 284 267 265 277 268 245 239 234 238 255 260 248 238 158 129 178 217 200 125 161 173 182 194 225 251 250 237 240 246 244 239 225 222 211 203 205 202 202 205 210 213 214 214 216 220
73 75 68 64 67 66 63 65 73 81 83 85 82 72 63 62 63 64 59 61 46 53 69 95 93 104 108 128 115 123 88 54 40 91 13 136 197 288 335 327 325 280 193 222 234 247 240 212 206 222 228 253 245 150 166 181 196 187 183 164 163 164 178 194 205 233 272 267 247 245 243 238 226 225 212 205 209 206 205 208 211 214 216 218 219
91 77 77 74 71 70 68 60 65 76 93 100 98 92 86 74 57 53 53 62 54 52 54 47 51 50 50 67 87 94 114 120 59 32 84 83 10 322 321 347 315 347 255 212 221 231 237 247 218 199 221 233 210 193 214 211 178 180 172 196 220 229 211 181 205 205 217 242 279 276 260 247 240 232 223 214 213 213 211 213 215 217 217 220 220
92 84 84 81 71 67 65 59 58 63 68 84 87 85 79 72 66 70 69 66 62 64 58 45 40 43 49 66 84 92 81 86 121 118 75 48 103 342 3 323 346 346 303 293 256 256 244 233 238 237 211 201 191 201 199 195 202 186 178 201 204 211 216 222 239 218 220 230 233 247 267 259 246 245 241 228 222 224 217 215 217 220 220 223 223
116 112 119 104 98 87 75 63 57 57 59 66 82 88 85 82 83 81 77 75 79 81 71 69 69 63 59 47 72 66 67 51 58 47 42 67 61 38 332 5 347 310 296 333 323 262 258 271 274 264 16 30 33 84 216 209 200 173 190 202 249 224 243 253 251 228 208 221 233 228 230 240 241 239 239 239 234 231 227 226 223 222 217 215 220
141 142 150 132 95 107 103 90 75 65 67 69 69 82 87 85 77 72 74 74 70 68 77 74 66 64 66 63 61 70 48 48 67 64 55 50 41 43 352 337 345 326 305 349 339 27 360 353 17 27 91 76 82 113 203 197 170 196 200 204 205 220 258 295 275 252 235 229 227 231 232 233 235 238 239 237 236 231 219 217 217 220 218 218 219
145 159 145 127 122 109 110 102 90 75 56 46 58 75 78 75 73 77 74 82 73 68 61 65 50 41 36 66 79 54 58 63 71 61 70 84 98 67 62 25 350 351 346 346 333 66 39 332 34 49 54 54 12 3 339 352 49 232 226 248 240 182 187 203 219 236 237 228 226 229 234 239 238 235 236 240 238 231 218 211 209 216 218 220 221
144 142 139 128 123 121 115 120 117 101 98 79 78 90 94 86 79 83 87 72 88 82 75 68 55 41 48 58 65 41 42 61 63 64 54 63 69 71 82 83 68 350 329 340 356 321 59 31 359 39 25 15 10 322 153 92 3 55 265 266 294 273 205 202 213 228 236 236 235 234 236 236 237 240 244 244 242 240 236 225 219 215 215 218 219
146 148 141 135 131 133 128 130 129 134 126 109 117 110 110 120 110 87 75 87 101 111 85 73 59 56 57 71 96 70 50 54 58 61 48 27 17 20 71 94 121 92 360 347 305 333 337 50 40 342 15 19 20 358 345 341 329 311 274 264 243 223 192 207 221 223 223 228 233 234 233 234 234 234 235 236 238 239 240 236 231 228 223 223 223
148 154 142 141 143 139 136 139 140 134 150 131 128 123 117 132 129 126 136 108 85 73 100 102 85 69 56 64 78 65 31 46 360 309 118 47 28 31 12 31 105 106 132 29 298 263 303 340 82 12 356 2 356 350 1 322 264 285 312 342 330 325 332 329 290 221 218 224 228 232 234 234 234 233 233 234 235 235 236 238 238 235 232 229 226
138 143 137 141 144 142 138 150 136 153 158 156 139 142 120 133 120 130 136 120 108 106 101 117 154 85 87 86 96 81 53 40 18 40 204 126 87 50 12 32 64 125 113 123 9 290 354 334 330 351 352 3 348 331 335 328 318 331 349 360 348 343 343 328 313 303 282 254 238 233 233 233 233 233 234 235 236 236 237 239 240 241 240 238 236
144 146 143 144 153 146 143 153 152 155 165 187 140 163 119 159 134 141 170 131 139 132 149 143 113 117 102 93 109 104 39 51 28 23 17 334 274 159 225 348 340 37 126 115 209 277 307 327 334 338 350 343 341 342 338 345 347 353 345 339 334 337 330 316 312 299 285 275 264 256 250 244 239 238 237 237 238 238 238 238 239 240 239 236 234
143 149 148 154 154 164 153 159 166 170 172 193 168 163 123 180 150 155 187 159 159 170 164 205 209 120 114 169 201 101 73 57 14 13 9 10 43 354 5 25 352 338 57 45 338 300 304 324 349 331 329 339 334 347 346 344 341 336 334 327 323 313 304 294 295 293 289 282 273 267 270 275 271 261 250 241 236 234 235 236 237 237 236 234 230
155 157 164 160 161 162 172 169 175 179 179 177 179 156 162 157 204 152 196 193 185 176 160 164 150 125 98 75 89 99 90 71 16 359 344 358 30 51 38 60 52 357 326 71 207 249 299 322 333 321 317 348 332 336 339 334 326 325 323 317 308 293 281 280 279 280 275 282 294 292 282 271 263 256 249 241 238 239 239 238 240 243 244 243 239
95 162 169 166 162 166 174 183 179 183 185 182 179 164 175 166 195 186 189 198 191 171 180 180 180 153 134 149 194 182 111 59 329 321 353 353 30 52 35 39 42 36 28 38 35 350 322 296 293 323 318 327 323 314 315 306 301 303 304 305 303 302 295 289 290 287 300 296 276 297 297 298 297 291 272 250 237 232 232 236 236 237 239 241 241
107 108 114 91 89 150 180 190 189 184 186 185 182 178 178 181 187 186 191 194 189 174 188 184 174 170 174 183 212 152 132 148 301 327 6 38 43 32 31 17 43 29 16 38 72 126 278 329 296 307 305 321 307 306 306 308 304 303 297 297 299 299 295 291 286 284 295 316 345 0 353 341 323 300 278 261 245 231 225 226 229 231 235 239 240
4 32 86 110 115 153 189 197 195 185 185 185 184 186 188 184 183 180 184 188 187 180 189 198 168 175 179 182 222 179 128 113 292 36 39 49 40 46 35 11 19 13 16 11 4 27 21 333 305 301 317 308 295 304 304 307 307 305 309 303 297 299 310 320 339 339 343 350 349 336 334 325 313 306 292 264 250 252 249 239 232 231 233 236 238
176 231 180 178 180 216 205 181 194 194 136 111 140 210 202 188 181 178 179 180 186 177 188 186 153 160 163 185 156 137 119 148 178 101 52 57 45 43 34 19 16 20 13 360 4 3 0 315 306 312 327 307 318 308 301 305 309 309 311 310 323 339 350 335 327 326 329 322 323 325 323 322 319 311 295 274 262 251 244 242 238 237 238 240 240
201 214 213 196 233 237 233 198 139 111 132 163 165 176 204 210 185 173 178 180 182 178 185 171 173 153 143 142 140 130 127 125 97 88 91 55 65 57 40 28 17 36 20 11 4 2 351 336 315 300 306 303 305 313 320 333 322 324 330 331 330 322 324 319 312 316 316 316 308 302 307 312 318 312 301 297 283 264 255 254 255 254 252 251 248
219 220 220 213 229 231 237 189 152 150 156 188 210 202 180 190 200 188 181 181 182 182 175 169 166 164 159 147 149 150 122 124 129 130 112 106 68 46 5 59 48 50 33 13 14 2 349 340 319 320 317 313 336 318 326 345 350 344 358 346 327 332 334 330 318 313 306 327 320 326 334 334 333 335 334 319 300 290 278 272 270 265 263 260 255
224 225 225 224 224 226 201 202 200 146 156 180 209 215 205 209 200 205 193 184 179 173 166 166 155 156 151 145 137 125 128 131 136 132 133 148 125 37 331 71 61 69 38 29 14 360 336 328 315 326 325 328 323 336 334 342 354 325 314 350 322 327 328 329 327 322 323 339 337 336 329 341 337 334 327 328 326 323 303 283 277 280 274 269 268
217 214 210 211 214 228 228 207 182 176 182 191 214 217 214 200 194 202 206 193 178 166 159 156 153 156 160 150 137 134 137 141 141 142 136 124 137 158 178 125 110 85 48 360 345 336 326 320 304 316 322 309 312 322 322 313 317 330 347 351 339 326 335 328 309 306 353 15 0 345 332 333 331 318 323 319 314 321 318 317 293 288 290 283 273
223 218 201 204 216 220 215 211 207 202 199 202 209 217 222 206 193 189 187 193 173 165 159 158 160 167 165 155 142 144 145 150 145 147 155 162 186 202 198 182 170 160 132 344 321 320 315 300 295 311 294 292 291 300 305 307 314 331 319 322 315 334 346 344 318 319 358 13 347 333 318 326 326 316 317 313 310 314 316 306 307 309 302 292 282
239 239 230 226 225 224 218 219 220 219 213 216 210 213 218 218 209 194 183 179 174 169 169 166 164 161 165 148 153 153 162 167 157 161 165 189 205 217 215 209 211 234 249 218 268 308 294 294 299 285 287 280 286 299 295 306 312 320 314 318 318 321 319 316 301 296 318 0 330 317 299 299 310 308 303 301 308 308 306 307 310 309 301 287 285
227 212 218 221 228 220 210 216 229 222 227 230 219 218 221 223 217 194 182 179 173 170 165 158 153 155 162 153 156 175 173 179 167 167 177 216 232 233 230 234 260 225 235 244 232 231 264 276 277 281 270 279 290 282 268 290 308 306 306 301 300 298 290 291 288 295 311 333 320 308 299 306 307 286 283 282 273 278 286 292 290 292 297 301 297
175 194 202 209 218 213 204 204 219 217 211 244 239 233 228 223 214 187 165 157 145 145 148 151 151 160 166 171 158 173 188 187 178 175 195 213 227 220 218 224 231 246 245 243 245 246 241 241 252 264 271 259 270 277 282 289 295 290 295 286 278 288 288 282 285 284 289 293 284 294 287 300 299 290 281 275 268 275 275 274 276 279 284 285 289
308 284 262 226 218 202 177 178 183 198 243 95 181 160 157 164 156 136 109 102 100 96 105 113 106 127 124 125 128 139 154 180 181 189 197 213 200 200 199 217 218 227 221 222 217 222 235 223 227 245 262 269 269 277 286 290 279 277 276 276 277 279 283 287 284 263 281 243 269 284 285 300 299 294 287 291 280 276 277 279 280 283 281 280 283
328 319 303 193 230 247 226 116 120 148 78 78 111 118 121 119 110 108 110 106 99 94 96 114 128 117 114 118 123 152 170 169 188 200 210 185 164 179 195 211 223 233 232 233 230 230 233 240 248 259 274 287 297 293 295 299 303 301 303 298 303 299 299 297 292 311 284 278 266 277 285 289 286 281 292 291 301 294 283 276 278 276 276 281 296
314 306 273 245 190 191 130 120 131 122 62 66 110 123 120 114 107 102 108 104 113 125 134 126 120 121 118 135 141 178 191 216 205 199 225 188 192 217 271 289 291 291 281 302 303 324 2 11 360 327 293 280 282 282 282 279 267 272 288 302 288 288 289 291 286 292 284 296 268 282 284 289 295 292 299 299 291 290 285 281 289 299 306 316 301
295 278 271 270 326 115 133 149 142 126 103 80 104 112 104 95 101 110 111 112 113 111 98 103 125 148 181 266 251 145 77 50 68 65 50 55 60 44 37 9 351 340 321 344 2 345 342 338 336 330 326 322 318 315 309 304 305 310 307 287 286 291 277 271 284 285 287 278 272 264 277 272 289 283 288 294 296 272 300 307 330 332 330 335 10
285 293 295 246 62 54 113 130 138 128 120 110 112 105 102 105 104 105 107 105 103 101 104 92 47 61 59 50 63 73 85 89 77 70 67 71 77 72 52 23 329 311 279 326 339 329 328 326 322 324 316 312 306 298 296 296 294 288 270 268 264 250 268 268 273 294 293 251 231 268 294 296 313 304 347 333 314 290 294 333 339 345 342 353 4